Time,TemperatureF,DewpointF,PressureIn,WindDirection,WindDirectionDegrees,WindSpeedMPH,WindSpeedGustMPH,Humidity,HourlyPrecipIn,Conditions,Clouds,dailyrainin,SoftwareType,DateUTC
2013-06-15 00:00:00,64.0,50.5,25.69,WSW,247,2.6,4.2,61,0.00,,,0.00,Rainwise IP-100,2013-06-15 06:00:00,
2013-06-15 00:05:00,63.7,50.0,25.69,West,270,2.8,4.0,61,0.00,,,0.00,Rainwise IP-100,2013-06-15 06:05:00,
2013-06-15 00:10:00,63.5,50.5,25.69,West,270,1.2,3.3,62,0.00,,,0.00,Rainwise IP-100,2013-06-15 06:10:00,
2013-06-15 00:15:00,63.3,50.5,25.69,West,270,1.6,2.1,62,0.00,,,0.00,Rainwise IP-100,2013-06-15 06:15:00,
2013-06-15 00:20:00,62.9,50.5,25.68,West,270,1.2,1.9,63,0.00,,,0.00,Rainwise IP-100,2013-06-15 06:20:00,
2013-06-15 00:25:00,62.7,50.0,25.68,West,270,1.4,2.1,64,0.00,,,0.00,Rainwise IP-100,2013-06-15 06:25:00,
2013-06-15 00:30:00,62.8,50.5,25.69,West,270,1.4,2.3,64,0.00,,,0.00,Rainwise IP-100,2013-06-15 06:30:00,
2013-06-15 00:35:00,62.8,50.5,25.69,West,270,1.2,2.1,64,0.00,,,0.00,Rainwise IP-100,2013-06-15 06:35:00,
2013-06-15 00:40:00,62.5,50.0,25.69,West,270,0.0,1.4,64,0.00,,,0.00,Rainwise IP-100,2013-06-15 06:40:00,
2013-06-15 00:45:00,61.8,50.0,25.68,WNW,292,1.2,1.4,65,0.00,,,0.00,Rainwise IP-100,2013-06-15 06:45:00,
2013-06-15 00:50:00,61.0,50.0,25.68,NW,315,1.2,1.9,66,0.00,,,0.00,Rainwise IP-100,2013-06-15 06:50:00,
2013-06-15 00:55:00,60.8,50.0,25.68,NW,315,0.0,1.6,66,0.00,,,0.00,Rainwise IP-100,2013-06-15 06:55:00,
2013-06-15 01:00:00,61.0,50.0,25.68,NW,315,0.0,0.0,66,0.00,,,0.00,Rainwise IP-100,2013-06-15 07:00:00,
2013-06-15 01:05:00,61.3,50.0,25.68,NW,315,0.0,0.0,65,0.00,,,0.00,Rainwise IP-100,2013-06-15 07:05:00,
2013-06-15 01:10:00,62.1,50.0,25.68,NNE,22,0.0,1.2,64,0.00,,,0.00,Rainwise IP-100,2013-06-15 07:10:00,
2013-06-15 01:15:00,62.8,50.5,25.68,NNE,22,0.0,0.0,63,0.00,,,0.00,Rainwise IP-100,2013-06-15 07:15:00,
2013-06-15 01:20:00,62.9,50.5,25.68,NNE,22,0.0,0.0,63,0.00,,,0.00,Rainwise IP-100,2013-06-15 07:20:00,
2013-06-15 01:25:00,63.0,50.5,25.68,ESE,112,1.2,1.9,63,0.00,,,0.00,Rainwise IP-100,2013-06-15 07:25:00,
2013-06-15 01:30:00,63.1,50.5,25.68,ESE,112,0.0,2.6,64,0.00,,,0.00,Rainwise IP-100,2013-06-15 07:30:00,
2013-06-15 01:35:00,63.1,50.5,25.68,ESE,112,0.0,1.6,64,0.00,,,0.00,Rainwise IP-100,2013-06-15 07:35:00,
2013-06-15 01:40:00,63.0,50.5,25.68,ESE,112,1.2,1.6,64,0.00,,,0.00,Rainwise IP-100,2013-06-15 07:40:00,
2013-06-15 01:45:00,63.0,51.0,25.68,ESE,112,1.9,2.6,65,0.00,,,0.00,Rainwise IP-100,2013-06-15 07:45:00,
2013-06-15 01:50:00,62.9,50.5,25.68,ESE,112,2.3,4.0,64,0.00,,,0.00,Rainwise IP-100,2013-06-15 07:50:00,
2013-06-15 01:55:00,63.1,50.5,25.68,ESE,112,4.0,5.1,64,0.00,,,0.00,Rainwise IP-100,2013-06-15 07:55:00,
2013-06-15 02:00:00,63.1,51.0,25.68,SE,135,1.6,5.4,65,0.00,,,0.00,Rainwise IP-100,2013-06-15 08:00:00,
2013-06-15 02:05:00,62.8,51.0,25.68,ESE,112,3.0,4.7,66,0.00,,,0.00,Rainwise IP-100,2013-06-15 08:05:00,
2013-06-15 02:10:00,62.6,51.0,25.68,ESE,112,3.3,6.3,67,0.00,,,0.00,Rainwise IP-100,2013-06-15 08:10:00,
2013-06-15 02:15:00,62.4,52.0,25.68,ESE,112,3.7,6.1,69,0.00,,,0.00,Rainwise IP-100,2013-06-15 08:15:00,
2013-06-15 02:20:00,62.0,53.0,25.68,SE,135,1.9,4.7,71,0.00,,,0.00,Rainwise IP-100,2013-06-15 08:20:00,
2013-06-15 02:25:00,61.7,53.0,25.68,ESE,112,4.0,5.1,72,0.00,,,0.00,Rainwise IP-100,2013-06-15 08:25:00,
2013-06-15 02:30:00,61.5,53.0,25.67,East,90,4.0,6.1,73,0.00,,,0.00,Rainwise IP-100,2013-06-15 08:30:00,
2013-06-15 02:35:00,61.4,53.5,25.67,SE,135,1.9,6.1,74,0.00,,,0.00,Rainwise IP-100,2013-06-15 08:35:00,
2013-06-15 02:40:00,61.3,53.5,25.67,ESE,112,4.4,5.8,75,0.00,,,0.00,Rainwise IP-100,2013-06-15 08:40:00,
2013-06-15 02:45:00,61.2,53.5,25.68,ESE,112,4.7,5.8,76,0.00,,,0.00,Rainwise IP-100,2013-06-15 08:45:00,
2013-06-15 02:50:00,61.0,53.5,25.67,ESE,112,2.6,6.1,76,0.00,,,0.00,Rainwise IP-100,2013-06-15 08:50:00,
2013-06-15 02:55:00,60.9,53.5,25.67,ESE,112,3.3,5.6,76,0.00,,,0.00,Rainwise IP-100,2013-06-15 08:55:00,
2013-06-15 03:00:00,60.9,53.5,25.68,ESE,112,3.5,6.5,76,0.00,,,0.00,Rainwise IP-100,2013-06-15 09:00:00,
2013-06-15 03:05:00,60.5,53.0,25.68,ESE,112,4.2,6.1,76,0.00,,,0.00,Rainwise IP-100,2013-06-15 09:05:00,
2013-06-15 03:10:00,60.3,53.5,25.68,ESE,112,3.5,5.8,77,0.00,,,0.00,Rainwise IP-100,2013-06-15 09:10:00,
2013-06-15 03:15:00,60.0,53.0,25.68,ESE,112,4.4,6.1,77,0.00,,,0.00,Rainwise IP-100,2013-06-15 09:15:00,
2013-06-15 03:20:00,59.8,53.5,25.67,SSE,157,3.3,6.5,78,0.00,,,0.00,Rainwise IP-100,2013-06-15 09:20:00,
2013-06-15 03:25:00,59.9,53.0,25.68,ESE,112,2.6,4.7,77,0.00,,,0.00,Rainwise IP-100,2013-06-15 09:25:00,
2013-06-15 03:30:00,60.0,53.0,25.67,ESE,112,0.0,5.6,77,0.00,,,0.00,Rainwise IP-100,2013-06-15 09:30:00,
2013-06-15 03:35:00,59.9,53.0,25.67,SE,135,0.0,3.0,77,0.00,,,0.00,Rainwise IP-100,2013-06-15 09:35:00,
2013-06-15 03:40:00,59.8,53.0,25.67,SE,135,3.0,6.3,77,0.00,,,0.00,Rainwise IP-100,2013-06-15 09:40:00,
2013-06-15 03:45:00,59.7,53.0,25.67,ESE,112,1.4,4.9,78,0.00,,,0.00,Rainwise IP-100,2013-06-15 09:45:00,
2013-06-15 03:50:00,59.6,53.0,25.67,ESE,112,3.3,4.4,78,0.00,,,0.00,Rainwise IP-100,2013-06-15 09:50:00,
2013-06-15 03:55:00,59.4,53.0,25.67,ESE,112,3.0,5.4,79,0.00,,,0.00,Rainwise IP-100,2013-06-15 09:55:00,
2013-06-15 04:00:00,59.2,53.0,25.67,ESE,112,2.1,4.4,79,0.00,,,0.00,Rainwise IP-100,2013-06-15 10:00:00,
2013-06-15 04:05:00,59.1,53.0,25.68,SE,135,3.0,4.4,79,0.00,,,0.00,Rainwise IP-100,2013-06-15 10:05:00,
2013-06-15 04:10:00,59.1,53.0,25.67,ESE,112,2.8,5.6,80,0.00,,,0.00,Rainwise IP-100,2013-06-15 10:10:00,
2013-06-15 04:15:00,59.0,53.0,25.67,SSE,157,1.9,4.9,80,0.00,,,0.00,Rainwise IP-100,2013-06-15 10:15:00,
2013-06-15 04:20:00,58.7,53.0,25.67,SE,135,1.2,2.8,80,0.00,,,0.00,Rainwise IP-100,2013-06-15 10:20:00,
2013-06-15 04:25:00,58.5,53.5,25.67,SE,135,0.0,3.0,81,0.00,,,0.00,Rainwise IP-100,2013-06-15 10:25:00,
2013-06-15 04:30:00,58.2,53.0,25.67,SE,135,0.0,2.8,82,0.00,,,0.00,Rainwise IP-100,2013-06-15 10:30:00,
2013-06-15 04:35:00,58.2,53.0,25.67,SSE,157,5.4,5.4,82,0.00,,,0.00,Rainwise IP-100,2013-06-15 10:35:00,
2013-06-15 04:40:00,58.2,53.5,25.67,SSE,157,1.2,5.6,83,0.00,,,0.00,Rainwise IP-100,2013-06-15 10:40:00,
2013-06-15 04:45:00,58.2,53.5,25.68,ESE,112,2.6,4.7,83,0.00,,,0.00,Rainwise IP-100,2013-06-15 10:45:00,
2013-06-15 04:50:00,58.1,53.5,25.67,ESE,112,2.8,6.1,83,0.00,,,0.00,Rainwise IP-100,2013-06-15 10:50:00,
2013-06-15 04:55:00,58.0,53.5,25.68,ESE,112,1.4,5.8,83,0.00,,,0.00,Rainwise IP-100,2013-06-15 10:55:00,
2013-06-15 05:00:00,57.8,53.5,25.68,ESE,112,3.5,3.7,83,0.00,,,0.00,Rainwise IP-100,2013-06-15 11:00:00,
2013-06-15 05:05:00,57.7,53.0,25.68,ESE,112,1.6,5.1,84,0.00,,,0.00,Rainwise IP-100,2013-06-15 11:05:00,
2013-06-15 05:10:00,57.4,53.0,25.68,ESE,112,2.6,2.8,84,0.00,,,0.00,Rainwise IP-100,2013-06-15 11:10:00,
2013-06-15 05:15:00,57.0,53.0,25.68,East,90,3.3,4.9,85,0.00,,,0.00,Rainwise IP-100,2013-06-15 11:15:00,
2013-06-15 05:20:00,56.9,53.0,25.69,East,90,0.0,3.5,85,0.00,,,0.00,Rainwise IP-100,2013-06-15 11:20:00,
2013-06-15 05:25:00,57.0,53.0,25.68,East,90,3.3,3.3,86,0.00,,,0.00,Rainwise IP-100,2013-06-15 11:25:00,
2013-06-15 05:30:00,57.1,53.0,25.69,East,90,0.0,4.0,86,0.00,,,0.00,Rainwise IP-100,2013-06-15 11:30:00,
2013-06-15 05:35:00,57.1,53.0,25.69,East,90,0.0,0.0,86,0.00,,,0.00,Rainwise IP-100,2013-06-15 11:35:00,
2013-06-15 05:40:00,57.1,53.0,25.69,East,90,0.0,1.4,86,0.00,,,0.00,Rainwise IP-100,2013-06-15 11:40:00,
2013-06-15 05:45:00,57.1,53.5,25.69,East,90,0.0,0.0,87,0.00,,,0.00,Rainwise IP-100,2013-06-15 11:45:00,
2013-06-15 05:50:00,57.1,53.5,25.69,East,90,0.0,1.2,87,0.00,,,0.00,Rainwise IP-100,2013-06-15 11:50:00,
2013-06-15 05:52:00,57.1,53.5,25.69,East,90,0.0,0.0,87,0.00,,,0.00,Rainwise IP-100,2013-06-15 11:52:00,
2013-06-15 05:57:00,57.3,54.0,25.69,East,90,0.0,2.6,87,0.00,,,0.00,Rainwise IP-100,2013-06-15 11:57:00,
2013-06-15 06:02:00,57.4,54.0,25.69,NNE,22,1.4,4.4,87,0.00,,,0.00,Rainwise IP-100,2013-06-15 12:02:00,
2013-06-15 06:07:00,57.4,53.5,25.69,NNE,22,0.0,2.1,86,0.00,,,0.00,Rainwise IP-100,2013-06-15 12:07:00,
2013-06-15 06:12:00,57.6,53.5,25.69,NNE,22,1.2,1.6,86,0.00,,,0.00,Rainwise IP-100,2013-06-15 12:12:00,
2013-06-15 06:17:00,57.8,54.0,25.70,NNE,22,0.0,1.6,86,0.00,,,0.00,Rainwise IP-100,2013-06-15 12:17:00,
2013-06-15 06:22:00,58.2,54.0,25.69,NNE,22,1.4,2.1,86,0.00,,,0.00,Rainwise IP-100,2013-06-15 12:22:00,
2013-06-15 06:27:00,58.9,54.5,25.69,NNE,22,2.1,2.3,85,0.00,,,0.00,Rainwise IP-100,2013-06-15 12:27:00,
2013-06-15 06:32:00,60.0,55.0,25.70,NNE,22,2.3,3.7,84,0.00,,,0.00,Rainwise IP-100,2013-06-15 12:32:00,
2013-06-15 06:37:00,60.6,56.0,25.70,North,360,0.0,3.5,84,0.00,,,0.00,Rainwise IP-100,2013-06-15 12:37:00,
2013-06-15 06:42:00,61.0,56.0,25.69,North,360,1.9,2.8,83,0.00,,,0.00,Rainwise IP-100,2013-06-15 12:42:00,
2013-06-15 06:47:00,61.7,56.0,25.69,North,360,2.3,2.8,82,0.00,,,0.00,Rainwise IP-100,2013-06-15 12:47:00,
2013-06-15 06:52:00,62.5,57.0,25.70,North,360,2.8,3.3,82,0.00,,,0.00,Rainwise IP-100,2013-06-15 12:52:00,
2013-06-15 06:57:00,63.2,56.5,25.70,NNE,22,1.9,4.2,80,0.00,,,0.00,Rainwise IP-100,2013-06-15 12:57:00,
2013-06-15 07:02:00,63.7,57.0,25.69,NNE,22,0.0,2.8,79,0.00,,,0.00,Rainwise IP-100,2013-06-15 13:02:00,
2013-06-15 07:07:00,63.5,57.0,25.70,NNW,337,2.8,3.7,79,0.00,,,0.00,Rainwise IP-100,2013-06-15 13:07:00,
2013-06-15 07:12:00,63.1,56.5,25.70,NNE,22,3.5,5.1,79,0.00,,,0.00,Rainwise IP-100,2013-06-15 13:12:00,
2013-06-15 07:17:00,63.3,57.0,25.70,NNW,337,5.4,6.8,79,0.00,,,0.00,Rainwise IP-100,2013-06-15 13:17:00,
2013-06-15 07:22:00,63.2,56.5,25.70,WNW,292,5.1,6.5,79,0.00,,,0.00,Rainwise IP-100,2013-06-15 13:22:00,
2013-06-15 07:27:00,63.1,56.5,25.70,WNW,292,3.7,6.5,79,0.00,,,0.00,Rainwise IP-100,2013-06-15 13:27:00,
2013-06-15 07:32:00,63.2,56.5,25.70,WNW,292,4.4,5.1,79,0.00,,,0.00,Rainwise IP-100,2013-06-15 13:32:00,
2013-06-15 07:37:00,63.5,56.5,25.70,WNW,292,3.0,4.9,78,0.00,,,0.00,Rainwise IP-100,2013-06-15 13:37:00,
2013-06-15 07:42:00,64.5,57.0,25.70,NNW,337,3.0,4.4,77,0.00,,,0.00,Rainwise IP-100,2013-06-15 13:42:00,
2013-06-15 07:45:00,65.2,57.0,25.70,North,360,1.6,4.7,76,0.00,,,0.00,Rainwise IP-100,2013-06-15 13:45:00,
2013-06-15 07:50:00,66.9,58.0,25.71,North,360,5.1,5.1,73,0.00,,,0.00,Rainwise IP-100,2013-06-15 13:50:00,
2013-06-15 07:55:00,68.1,57.5,25.71,NNW,337,6.3,6.5,70,0.00,,,0.00,Rainwise IP-100,2013-06-15 13:55:00,
2013-06-15 08:00:00,68.6,57.0,25.70,NNW,337,5.6,6.3,67,0.00,,,0.00,Rainwise IP-100,2013-06-15 14:00:00,
2013-06-15 08:05:00,68.0,56.5,25.71,NNW,337,4.4,8.4,67,0.00,,,0.00,Rainwise IP-100,2013-06-15 14:05:00,
2013-06-15 08:10:00,67.5,56.5,25.71,NNW,337,5.8,8.4,67,0.00,,,0.00,Rainwise IP-100,2013-06-15 14:10:00,
2013-06-15 08:15:00,68.3,56.5,25.71,NNE,22,5.8,8.9,66,0.00,,,0.00,Rainwise IP-100,2013-06-15 14:15:00,
2013-06-15 08:20:00,69.3,56.5,25.71,North,360,7.2,8.4,64,0.00,,,0.00,Rainwise IP-100,2013-06-15 14:20:00,
2013-06-15 08:25:00,69.9,57.0,25.71,NNW,337,5.8,8.4,63,0.00,,,0.00,Rainwise IP-100,2013-06-15 14:25:00,
2013-06-15 08:30:00,70.4,57.0,25.71,North,360,8.6,8.6,62,0.00,,,0.00,Rainwise IP-100,2013-06-15 14:30:00,
2013-06-15 08:35:00,71.1,56.5,25.71,NNE,22,6.1,10.7,60,0.00,,,0.00,Rainwise IP-100,2013-06-15 14:35:00,
2013-06-15 08:40:00,71.9,56.5,25.71,NNW,337,11.0,11.0,58,0.00,,,0.00,Rainwise IP-100,2013-06-15 14:40:00,
2013-06-15 08:45:00,72.3,56.0,25.71,NNE,22,5.6,11.0,56,0.00,,,0.00,Rainwise IP-100,2013-06-15 14:45:00,
2013-06-15 08:50:00,72.6,55.0,25.71,NNE,22,7.5,10.3,54,0.00,,,0.00,Rainwise IP-100,2013-06-15 14:50:00,
2013-06-15 08:55:00,73.1,54.5,25.71,NNE,22,8.2,9.3,53,0.00,,,0.00,Rainwise IP-100,2013-06-15 14:55:00,
2013-06-15 09:00:00,73.5,54.5,25.71,North,360,9.1,14.0,51,0.00,,,0.00,Rainwise IP-100,2013-06-15 15:00:00,
2013-06-15 09:05:00,73.5,54.0,25.71,NNE,22,7.7,14.2,50,0.00,,,0.00,Rainwise IP-100,2013-06-15 15:05:00,
2013-06-15 09:10:00,73.8,54.0,25.71,NNE,22,5.4,11.2,50,0.00,,,0.00,Rainwise IP-100,2013-06-15 15:10:00,
2013-06-15 09:15:00,74.8,54.5,25.70,NNW,337,4.0,11.7,49,0.00,,,0.00,Rainwise IP-100,2013-06-15 15:15:00,
2013-06-15 09:20:00,75.6,54.0,25.70,NNE,22,7.0,10.3,47,0.00,,,0.00,Rainwise IP-100,2013-06-15 15:20:00,
2013-06-15 09:25:00,76.1,53.5,25.70,North,360,7.2,12.4,46,0.00,,,0.00,Rainwise IP-100,2013-06-15 15:25:00,
2013-06-15 09:30:00,76.8,54.0,25.70,NNE,22,5.4,13.1,45,0.00,,,0.00,Rainwise IP-100,2013-06-15 15:30:00,
2013-06-15 09:35:00,77.5,53.5,25.70,NNE,22,9.3,11.7,43,0.00,,,0.00,Rainwise IP-100,2013-06-15 15:35:00,
2013-06-15 09:40:00,77.4,53.5,25.71,NNE,22,8.2,11.4,43,0.00,,,0.00,Rainwise IP-100,2013-06-15 15:40:00,
2013-06-15 09:45:00,77.4,53.0,25.71,NNW,337,2.1,12.8,42,0.00,,,0.00,Rainwise IP-100,2013-06-15 15:45:00,
2013-06-15 09:50:00,78.2,53.5,25.71,NNE,22,7.5,12.4,42,0.00,,,0.00,Rainwise IP-100,2013-06-15 15:50:00,
2013-06-15 09:55:00,78.6,53.5,25.70,NNE,22,10.5,11.7,41,0.00,,,0.00,Rainwise IP-100,2013-06-15 15:55:00,
2013-06-15 10:00:00,78.4,52.0,25.70,North,360,6.8,11.7,40,0.00,,,0.00,Rainwise IP-100,2013-06-15 16:00:00,
2013-06-15 10:05:00,78.5,53.0,25.70,NNW,337,10.7,13.3,40,0.00,,,0.00,Rainwise IP-100,2013-06-15 16:05:00,
2013-06-15 10:10:00,79.3,52.0,25.71,NNW,337,2.6,10.7,39,0.00,,,0.00,Rainwise IP-100,2013-06-15 16:10:00,
2013-06-15 10:15:00,80.1,52.0,25.71,NE,45,4.4,11.4,38,0.00,,,0.00,Rainwise IP-100,2013-06-15 16:15:00,
2013-06-15 10:20:00,80.0,52.0,25.70,North,360,7.2,10.3,38,0.00,,,0.00,Rainwise IP-100,2013-06-15 16:20:00,
2013-06-15 10:25:00,79.6,52.0,25.70,NE,45,6.1,11.7,38,0.00,,,0.00,Rainwise IP-100,2013-06-15 16:25:00,
2013-06-15 10:30:00,78.7,51.0,25.70,ENE,67,7.7,12.4,38,0.00,,,0.00,Rainwise IP-100,2013-06-15 16:30:00,
2013-06-15 10:35:00,78.6,51.0,25.71,ENE,67,0.0,10.7,38,0.00,,,0.00,Rainwise IP-100,2013-06-15 16:35:00,
2013-06-15 10:40:00,79.7,51.0,25.71,ENE,67,4.9,10.3,37,0.00,,,0.00,Rainwise IP-100,2013-06-15 16:40:00,
2013-06-15 10:45:00,80.2,51.0,25.71,NNW,337,3.3,11.2,37,0.00,,,0.00,Rainwise IP-100,2013-06-15 16:45:00,
2013-06-15 10:50:00,80.7,51.0,25.70,NNW,337,0.0,9.8,36,0.00,,,0.00,Rainwise IP-100,2013-06-15 16:50:00,
2013-06-15 10:55:00,80.9,50.5,25.70,ENE,67,3.5,11.9,35,0.00,,,0.00,Rainwise IP-100,2013-06-15 16:55:00,
2013-06-15 11:01:00,80.7,51.0,25.71,ENE,67,6.1,10.5,36,0.00,,,0.00,Rainwise IP-100,2013-06-15 17:01:00,
2013-06-15 11:06:00,80.5,51.0,25.71,ENE,67,10.3,13.3,36,0.00,,,0.00,Rainwise IP-100,2013-06-15 17:06:00,
2013-06-15 11:11:00,80.1,50.5,25.70,NNE,22,7.7,13.5,36,0.00,,,0.00,Rainwise IP-100,2013-06-15 17:11:00,
2013-06-15 11:16:00,79.9,50.5,25.71,NNE,22,9.1,12.4,36,0.00,,,0.00,Rainwise IP-100,2013-06-15 17:16:00,
2013-06-15 11:21:00,80.3,50.0,25.71,NE,45,8.9,11.7,35,0.00,,,0.00,Rainwise IP-100,2013-06-15 17:21:00,
2013-06-15 11:26:00,81.3,51.0,25.71,NNW,337,4.2,12.6,35,0.00,,,0.00,Rainwise IP-100,2013-06-15 17:26:00,
2013-06-15 11:31:00,81.8,50.5,25.70,ENE,67,4.2,11.0,34,0.00,,,0.00,Rainwise IP-100,2013-06-15 17:31:00,
2013-06-15 11:36:00,81.3,50.5,25.70,ENE,67,4.9,10.0,34,0.00,,,0.00,Rainwise IP-100,2013-06-15 17:36:00,
2013-06-15 11:41:00,80.4,50.0,25.70,NE,45,0.0,12.8,34,0.00,,,0.00,Rainwise IP-100,2013-06-15 17:41:00,
2013-06-15 11:46:00,80.5,50.0,25.70,ENE,67,2.1,12.8,34,0.00,,,0.00,Rainwise IP-100,2013-06-15 17:46:00,
2013-06-15 11:51:00,81.2,50.5,25.70,NNE,22,2.3,9.8,34,0.00,,,0.00,Rainwise IP-100,2013-06-15 17:51:00,
2013-06-15 11:56:00,81.5,50.0,25.70,NNE,22,9.6,11.7,33,0.00,,,0.00,Rainwise IP-100,2013-06-15 17:56:00,
2013-06-15 12:01:00,81.5,50.0,25.70,ESE,112,3.7,11.4,33,0.00,,,0.00,Rainwise IP-100,2013-06-15 18:01:00,
2013-06-15 12:06:00,81.7,50.0,25.70,ENE,67,14.5,14.5,33,0.00,,,0.00,Rainwise IP-100,2013-06-15 18:06:00,
2013-06-15 12:11:00,81.4,50.0,25.70,NNE,22,3.7,15.2,33,0.00,,,0.00,Rainwise IP-100,2013-06-15 18:11:00,
2013-06-15 12:16:00,81.5,50.0,25.70,ENE,67,8.6,13.5,33,0.00,,,0.00,Rainwise IP-100,2013-06-15 18:16:00,
2013-06-15 12:21:00,82.1,50.0,25.70,NNE,22,3.3,12.6,33,0.00,,,0.00,Rainwise IP-100,2013-06-15 18:21:00,
2013-06-15 12:26:00,82.6,50.5,25.70,ENE,67,10.7,15.2,33,0.00,,,0.00,Rainwise IP-100,2013-06-15 18:26:00,
2013-06-15 12:31:00,82.6,50.5,25.70,ENE,67,4.4,14.2,33,0.00,,,0.00,Rainwise IP-100,2013-06-15 18:31:00,
2013-06-15 12:36:00,82.0,49.0,25.70,East,90,3.5,8.9,32,0.00,,,0.00,Rainwise IP-100,2013-06-15 18:36:00,
2013-06-15 12:41:00,82.0,49.0,25.70,SE,135,3.7,8.4,32,0.00,,,0.00,Rainwise IP-100,2013-06-15 18:41:00,
2013-06-15 12:46:00,82.5,50.0,25.70,ENE,67,6.8,12.6,32,0.00,,,0.00,Rainwise IP-100,2013-06-15 18:46:00,
2013-06-15 12:51:00,82.8,50.0,25.70,NNE,22,8.4,14.7,32,0.00,,,0.00,Rainwise IP-100,2013-06-15 18:51:00,
2013-06-15 12:56:00,83.3,50.5,25.69,ENE,67,7.7,12.4,32,0.00,,,0.00,Rainwise IP-100,2013-06-15 18:56:00,
2013-06-15 13:01:00,84.0,50.5,25.69,NNE,22,10.7,10.7,31,0.00,,,0.00,Rainwise IP-100,2013-06-15 19:01:00,
2013-06-15 13:06:00,83.8,49.0,25.69,ENE,67,8.6,13.3,30,0.00,,,0.00,Rainwise IP-100,2013-06-15 19:06:00,
2013-06-15 13:11:00,83.5,49.0,25.69,NNE,22,8.2,12.1,30,0.00,,,0.00,Rainwise IP-100,2013-06-15 19:11:00,
2013-06-15 13:16:00,83.6,49.0,25.69,NNW,337,5.6,13.3,30,0.00,,,0.00,Rainwise IP-100,2013-06-15 19:16:00,
2013-06-15 13:21:00,83.6,48.0,25.69,NNE,22,0.0,10.3,29,0.00,,,0.00,Rainwise IP-100,2013-06-15 19:21:00,
2013-06-15 13:26:00,83.8,48.0,25.69,SSE,157,2.3,6.3,29,0.00,,,0.00,Rainwise IP-100,2013-06-15 19:26:00,
2013-06-15 13:31:00,84.2,49.0,25.68,ENE,67,12.4,12.6,29,0.00,,,0.00,Rainwise IP-100,2013-06-15 19:31:00,
2013-06-15 13:36:00,84.4,50.0,25.68,ENE,67,4.4,12.4,30,0.00,,,0.00,Rainwise IP-100,2013-06-15 19:36:00,
2013-06-15 13:41:00,84.6,49.0,25.68,ENE,67,8.2,12.1,29,0.00,,,0.00,Rainwise IP-100,2013-06-15 19:41:00,
2013-06-15 13:46:00,84.6,49.0,25.68,NNE,22,10.5,11.4,29,0.00,,,0.00,Rainwise IP-100,2013-06-15 19:46:00,
2013-06-15 13:51:00,84.6,49.0,25.68,NNE,22,5.1,14.2,29,0.00,,,0.00,Rainwise IP-100,2013-06-15 19:51:00,
2013-06-15 13:56:00,85.1,49.0,25.67,ENE,67,4.4,9.8,29,0.00,,,0.00,Rainwise IP-100,2013-06-15 19:56:00,
2013-06-15 14:01:00,85.3,49.0,25.68,ENE,67,10.7,10.7,29,0.00,,,0.00,Rainwise IP-100,2013-06-15 20:01:00,
2013-06-15 14:06:00,85.2,49.0,25.68,ESE,112,4.9,13.5,29,0.00,,,0.00,Rainwise IP-100,2013-06-15 20:06:00,
2013-06-15 14:11:00,85.1,49.0,25.67,ENE,67,3.7,14.9,29,0.00,,,0.00,Rainwise IP-100,2013-06-15 20:11:00,
2013-06-15 14:16:00,85.0,49.0,25.68,ENE,67,4.0,13.8,29,0.00,,,0.00,Rainwise IP-100,2013-06-15 20:16:00,
2013-06-15 14:21:00,85.0,49.0,25.68,ENE,67,8.2,10.7,29,0.00,,,0.00,Rainwise IP-100,2013-06-15 20:21:00,
2013-06-15 14:26:00,85.1,49.0,25.67,ESE,112,6.8,12.8,29,0.00,,,0.00,Rainwise IP-100,2013-06-15 20:26:00,
2013-06-15 14:31:00,84.9,48.0,25.67,East,90,13.8,13.8,28,0.00,,,0.00,Rainwise IP-100,2013-06-15 20:31:00,
2013-06-15 14:36:00,85.2,48.0,25.67,ENE,67,6.3,13.8,28,0.00,,,0.00,Rainwise IP-100,2013-06-15 20:36:00,
2013-06-15 14:41:00,85.5,48.0,25.67,East,90,7.2,21.7,28,0.00,,,0.00,Rainwise IP-100,2013-06-15 20:41:00,
2013-06-15 14:46:00,85.6,48.0,25.67,ENE,67,6.8,13.3,28,0.00,,,0.00,Rainwise IP-100,2013-06-15 20:46:00,
2013-06-15 14:51:00,85.2,48.0,25.67,ENE,67,6.1,13.3,28,0.00,,,0.00,Rainwise IP-100,2013-06-15 20:51:00,
2013-06-15 14:56:00,85.3,47.5,25.67,NE,45,2.3,7.7,27,0.00,,,0.00,Rainwise IP-100,2013-06-15 20:56:00,
2013-06-15 15:01:00,86.3,48.0,25.66,ENE,67,8.2,11.9,27,0.00,,,0.00,Rainwise IP-100,2013-06-15 21:01:00,
2013-06-15 15:06:00,86.4,47.5,25.66,East,90,11.2,15.9,26,0.00,,,0.00,Rainwise IP-100,2013-06-15 21:06:00,
2013-06-15 15:11:00,86.2,47.5,25.65,ENE,67,4.4,13.3,26,0.00,,,0.00,Rainwise IP-100,2013-06-15 21:11:00,
2013-06-15 15:16:00,86.3,47.5,25.66,NNE,22,5.8,15.6,26,0.00,,,0.00,Rainwise IP-100,2013-06-15 21:16:00,
2013-06-15 15:21:00,86.4,47.5,25.65,East,90,3.0,7.9,26,0.00,,,0.00,Rainwise IP-100,2013-06-15 21:21:00,
2013-06-15 15:26:00,86.6,47.5,25.65,SE,135,4.2,15.6,26,0.00,,,0.00,Rainwise IP-100,2013-06-15 21:26:00,
2013-06-15 15:31:00,86.8,47.5,25.65,ENE,67,10.3,14.9,26,0.00,,,0.00,Rainwise IP-100,2013-06-15 21:31:00,
2013-06-15 15:36:00,86.9,48.0,25.64,NE,45,3.3,17.0,26,0.00,,,0.00,Rainwise IP-100,2013-06-15 21:36:00,
2013-06-15 15:41:00,86.8,47.0,25.64,ESE,112,7.5,15.2,25,0.00,,,0.00,Rainwise IP-100,2013-06-15 21:41:00,
2013-06-15 15:46:00,87.0,48.0,25.64,ESE,112,3.0,14.9,26,0.00,,,0.00,Rainwise IP-100,2013-06-15 21:46:00,
2013-06-15 15:51:00,87.0,48.0,25.64,SSW,202,4.4,10.0,26,0.00,,,0.00,Rainwise IP-100,2013-06-15 21:51:00,
2013-06-15 15:56:00,87.0,48.0,25.64,ENE,67,5.6,19.8,26,0.00,,,0.00,Rainwise IP-100,2013-06-15 21:56:00,
2013-06-15 16:01:00,87.3,48.0,25.63,ENE,67,14.0,18.4,26,0.00,,,0.00,Rainwise IP-100,2013-06-15 22:01:00,
2013-06-15 16:06:00,87.2,48.0,25.63,ENE,67,10.5,18.7,26,0.00,,,0.00,Rainwise IP-100,2013-06-15 22:06:00,
2013-06-15 16:11:00,86.7,47.5,25.64,East,90,8.6,15.2,26,0.00,,,0.00,Rainwise IP-100,2013-06-15 22:11:00,
2013-06-15 16:16:00,87.0,48.0,25.63,ESE,112,4.2,15.6,26,0.00,,,0.00,Rainwise IP-100,2013-06-15 22:16:00,
2013-06-15 16:21:00,87.4,48.0,25.63,ESE,112,5.6,15.6,26,0.00,,,0.00,Rainwise IP-100,2013-06-15 22:21:00,
2013-06-15 16:26:00,87.1,47.5,25.63,ENE,67,5.1,15.6,25,0.00,,,0.00,Rainwise IP-100,2013-06-15 22:26:00,
2013-06-15 16:31:00,87.0,47.0,25.63,ENE,67,14.5,14.5,25,0.00,,,0.00,Rainwise IP-100,2013-06-15 22:31:00,
2013-06-15 16:36:00,86.9,46.0,25.63,ESE,112,13.1,22.2,24,0.00,,,0.00,Rainwise IP-100,2013-06-15 22:36:00,
2013-06-15 16:41:00,87.0,46.0,25.63,SE,135,4.9,13.5,24,0.00,,,0.00,Rainwise IP-100,2013-06-15 22:41:00,
2013-06-15 16:46:00,87.2,45.0,25.63,ESE,112,3.0,14.5,23,0.00,,,0.00,Rainwise IP-100,2013-06-15 22:46:00,
2013-06-15 16:51:00,87.3,44.0,25.63,ENE,67,11.2,11.7,22,0.00,,,0.00,Rainwise IP-100,2013-06-15 22:51:00,
2013-06-15 16:56:00,87.5,44.0,25.63,East,90,4.4,12.8,22,0.00,,,0.00,Rainwise IP-100,2013-06-15 22:56:00,
2013-06-15 17:01:00,87.4,44.0,25.63,ENE,67,2.8,13.1,22,0.00,,,0.00,Rainwise IP-100,2013-06-15 23:01:00,
2013-06-15 17:06:00,87.2,44.0,25.63,ESE,112,5.8,9.6,22,0.00,,,0.00,Rainwise IP-100,2013-06-15 23:06:00,
2013-06-15 17:11:00,86.9,42.0,25.63,ENE,67,5.4,9.1,21,0.00,,,0.00,Rainwise IP-100,2013-06-15 23:11:00,
2013-06-15 17:16:00,86.6,43.0,25.62,ENE,67,9.3,13.1,22,0.00,,,0.00,Rainwise IP-100,2013-06-15 23:16:00,
2013-06-15 17:21:00,86.5,44.0,25.62,East,90,8.4,16.1,23,0.00,,,0.00,Rainwise IP-100,2013-06-15 23:21:00,
2013-06-15 17:26:00,86.6,45.0,25.62,ESE,112,12.6,19.4,24,0.00,,,0.00,Rainwise IP-100,2013-06-15 23:26:00,
2013-06-15 17:31:00,86.7,46.0,25.62,ENE,67,8.9,14.2,24,0.00,,,0.00,Rainwise IP-100,2013-06-15 23:31:00,
2013-06-15 17:36:00,86.5,45.0,25.62,ENE,67,6.5,16.1,24,0.00,,,0.00,Rainwise IP-100,2013-06-15 23:36:00,
2013-06-15 17:41:00,86.6,44.0,25.62,ENE,67,8.2,13.5,23,0.00,,,0.00,Rainwise IP-100,2013-06-15 23:41:00,
2013-06-15 17:46:00,86.5,44.0,25.62,East,90,10.5,20.1,23,0.00,,,0.00,Rainwise IP-100,2013-06-15 23:46:00,
2013-06-15 17:51:00,86.1,45.0,25.62,ENE,67,12.6,14.7,24,0.00,,,0.00,Rainwise IP-100,2013-06-15 23:51:00,
2013-06-15 17:56:00,85.8,46.0,25.63,ENE,67,8.4,13.3,25,0.00,,,0.00,Rainwise IP-100,2013-06-15 23:56:00,
2013-06-15 18:01:00,85.6,46.0,25.63,ENE,67,6.1,10.5,25,0.00,,,0.00,Rainwise IP-100,2013-06-16 00:01:00,
2013-06-15 18:06:00,85.4,46.0,25.64,NNE,22,7.0,12.8,25,0.00,,,0.00,Rainwise IP-100,2013-06-16 00:06:00,
2013-06-15 18:11:00,85.3,46.0,25.66,NE,45,11.0,13.1,25,0.00,,,0.00,Rainwise IP-100,2013-06-16 00:11:00,
2013-06-15 18:16:00,85.0,45.0,25.67,NNW,337,18.0,26.1,25,0.00,,,0.00,Rainwise IP-100,2013-06-16 00:16:00,
2013-06-15 18:21:00,81.1,42.0,25.68,NNW,337,12.8,31.2,25,0.00,,,0.00,Rainwise IP-100,2013-06-16 00:21:00,
2013-06-15 18:26:00,77.0,39.0,25.67,NNW,337,24.9,39.4,26,0.00,,,0.00,Rainwise IP-100,2013-06-16 00:26:00,
2013-06-15 18:31:00,75.7,40.0,25.69,NNW,337,18.4,35.7,28,0.00,,,0.00,Rainwise IP-100,2013-06-16 00:31:00,
2013-06-15 18:36:00,74.6,42.0,25.69,WNW,292,21.5,38.2,31,0.00,,,0.00,Rainwise IP-100,2013-06-16 00:36:00,
2013-06-15 18:41:00,74.1,42.0,25.70,NNW,337,18.7,34.0,32,0.00,,,0.00,Rainwise IP-100,2013-06-16 00:41:00,
2013-06-15 18:46:00,73.5,44.0,25.70,NNW,337,22.9,38.2,34,0.00,,,0.00,Rainwise IP-100,2013-06-16 00:46:00,
2013-06-15 18:51:00,72.5,45.0,25.71,NW,315,21.7,36.6,37,0.00,,,0.00,Rainwise IP-100,2013-06-16 00:51:00,
2013-06-15 18:56:00,71.9,46.0,25.69,NW,315,18.9,38.0,39,0.00,,,0.00,Rainwise IP-100,2013-06-16 00:56:00,
2013-06-15 19:01:00,70.9,46.0,25.72,NNW,337,18.9,42.0,41,0.00,,,0.00,Rainwise IP-100,2013-06-16 01:01:00,
2013-06-15 19:06:00,68.6,48.0,25.73,NNW,337,17.0,31.7,48,0.00,,,0.00,Rainwise IP-100,2013-06-16 01:06:00,
2013-06-15 19:11:00,66.4,50.0,25.73,North,360,17.7,34.7,56,0.06,,,0.01,Rainwise IP-100,2013-06-16 01:11:00,
2013-06-15 19:16:00,65.8,51.0,25.74,NNE,22,18.0,30.3,59,0.06,,,0.01,Rainwise IP-100,2013-06-16 01:16:00,
2013-06-15 19:21:00,66.4,50.5,25.71,NNE,22,26.1,26.3,57,0.06,,,0.02,Rainwise IP-100,2013-06-16 01:21:00,
2013-06-15 19:26:00,66.0,51.0,25.74,NNE,22,17.3,31.2,59,0.06,,,0.02,Rainwise IP-100,2013-06-16 01:26:00,
2013-06-15 19:31:00,66.1,51.0,25.73,NNE,22,17.0,21.7,59,0.00,,,0.02,Rainwise IP-100,2013-06-16 01:31:00,
2013-06-15 19:36:00,67.1,51.0,25.74,NNE,22,16.3,22.2,56,0.00,,,0.02,Rainwise IP-100,2013-06-16 01:36:00,
2013-06-15 19:41:00,67.5,50.5,25.75,NNE,22,13.3,19.8,55,0.00,,,0.02,Rainwise IP-100,2013-06-16 01:41:00,
2013-06-15 19:46:00,67.3,51.0,25.75,NE,45,8.9,16.8,56,0.00,,,0.02,Rainwise IP-100,2013-06-16 01:46:00,
2013-06-15 19:51:00,67.8,51.0,25.75,NE,45,14.0,18.2,55,0.00,,,0.02,Rainwise IP-100,2013-06-16 01:51:00,
2013-06-15 19:56:00,68.8,51.0,25.77,NNE,22,9.3,21.0,53,0.00,,,0.02,Rainwise IP-100,2013-06-16 01:56:00,
2013-06-15 20:01:00,68.8,50.5,25.78,ENE,67,3.7,13.1,52,0.00,,,0.02,Rainwise IP-100,2013-06-16 02:01:00,
2013-06-15 20:06:00,68.2,50.5,25.78,NE,45,2.3,9.3,54,0.00,,,0.02,Rainwise IP-100,2013-06-16 02:06:00,
2013-06-15 20:11:00,67.6,52.0,25.79,WSW,247,0.0,4.0,57,0.00,,,0.03,Rainwise IP-100,2013-06-16 02:11:00,
2013-06-15 20:16:00,67.4,52.0,25.79,North,360,2.1,12.1,58,0.06,,,0.03,Rainwise IP-100,2013-06-16 02:16:00,
2013-06-15 20:21:00,67.4,52.0,25.81,WSW,247,11.4,14.2,57,0.12,,,0.04,Rainwise IP-100,2013-06-16 02:21:00,
2013-06-15 20:26:00,66.8,52.0,25.81,NW,315,2.6,11.4,59,0.12,,,0.05,Rainwise IP-100,2013-06-16 02:26:00,
2013-06-15 20:31:00,65.4,53.0,25.80,North,360,5.6,8.6,64,0.12,,,0.06,Rainwise IP-100,2013-06-16 02:31:00,
2013-06-15 20:36:00,64.2,53.5,25.78,NE,45,4.2,9.3,69,0.12,,,0.07,Rainwise IP-100,2013-06-16 02:36:00,
2013-06-15 20:41:00,63.6,54.5,25.71,ENE,67,20.1,23.6,73,0.12,,,0.08,Rainwise IP-100,2013-06-16 02:41:00,
2013-06-15 20:46:00,63.8,55.0,25.70,ENE,67,11.9,28.4,73,0.06,,,0.08,Rainwise IP-100,2013-06-16 02:46:00,
2013-06-15 20:51:00,63.8,54.5,25.72,ENE,67,10.3,20.1,72,0.00,,,0.08,Rainwise IP-100,2013-06-16 02:51:00,
2013-06-15 20:56:00,63.9,54.5,25.72,ENE,67,7.7,13.8,72,0.00,,,0.08,Rainwise IP-100,2013-06-16 02:56:00,
2013-06-15 21:01:00,64.6,54.5,25.71,ESE,112,2.3,9.1,70,0.00,,,0.08,Rainwise IP-100,2013-06-16 03:01:00,
2013-06-15 21:06:00,64.8,54.5,25.70,SSE,157,10.3,10.3,70,0.00,,,0.08,Rainwise IP-100,2013-06-16 03:06:00,
2013-06-15 21:11:00,65.3,54.0,25.70,East,90,5.8,11.2,67,0.00,,,0.08,Rainwise IP-100,2013-06-16 03:11:00,
2013-06-15 21:16:00,66.3,53.5,25.70,ESE,112,3.5,9.1,63,0.00,,,0.08,Rainwise IP-100,2013-06-16 03:16:00,
2013-06-15 21:21:00,66.3,53.0,25.70,ESE,112,4.7,9.1,62,0.00,,,0.08,Rainwise IP-100,2013-06-16 03:21:00,
2013-06-15 21:26:00,66.0,53.0,25.69,ESE,112,3.7,8.9,63,0.00,,,0.08,Rainwise IP-100,2013-06-16 03:26:00,
2013-06-15 21:31:00,65.7,53.0,25.70,SSE,157,2.3,6.8,64,0.00,,,0.08,Rainwise IP-100,2013-06-16 03:31:00,
2013-06-15 21:36:00,65.4,53.5,25.69,ENE,67,8.6,9.6,65,0.00,,,0.08,Rainwise IP-100,2013-06-16 03:36:00,
2013-06-15 21:41:00,65.0,54.0,25.69,ESE,112,3.5,11.4,67,0.00,,,0.08,Rainwise IP-100,2013-06-16 03:41:00,
2013-06-15 21:46:00,64.5,54.0,25.70,ESE,112,4.0,6.1,69,0.00,,,0.08,Rainwise IP-100,2013-06-16 03:46:00,
2013-06-15 21:51:00,64.6,54.0,25.70,ESE,112,4.0,5.4,69,0.00,,,0.08,Rainwise IP-100,2013-06-16 03:51:00,
2013-06-15 21:56:00,64.9,54.5,25.70,East,90,3.3,7.7,69,0.00,,,0.08,Rainwise IP-100,2013-06-16 03:56:00,
2013-06-15 22:01:00,65.1,54.0,25.69,ENE,67,4.4,8.2,68,0.00,,,0.08,Rainwise IP-100,2013-06-16 04:01:00,
2013-06-15 22:06:00,65.3,54.0,25.70,East,90,2.8,6.1,67,0.00,,,0.08,Rainwise IP-100,2013-06-16 04:06:00,
2013-06-15 22:11:00,65.3,54.0,25.70,East,90,2.8,4.4,67,0.00,,,0.08,Rainwise IP-100,2013-06-16 04:11:00,
2013-06-15 22:16:00,65.4,54.0,25.70,East,90,3.5,5.4,66,0.00,,,0.08,Rainwise IP-100,2013-06-16 04:16:00,
2013-06-15 22:21:00,65.4,53.5,25.70,NNE,22,4.9,6.8,65,0.00,,,0.08,Rainwise IP-100,2013-06-16 04:21:00,
2013-06-15 22:26:00,65.2,53.0,25.71,NNE,22,8.9,8.9,65,0.00,,,0.08,Rainwise IP-100,2013-06-16 04:26:00,
2013-06-15 22:31:00,64.6,53.5,25.71,NNW,337,6.1,10.7,67,0.00,,,0.08,Rainwise IP-100,2013-06-16 04:31:00,
2013-06-15 22:32:00,64.5,53.5,25.71,NNW,337,3.3,10.7,67,0.00,,,0.08,Rainwise IP-100,2013-06-16 04:32:00,
2013-06-15 22:37:00,63.5,53.5,25.72,NNW,337,4.4,13.5,70,0.00,,,0.08,Rainwise IP-100,2013-06-16 04:37:00,
2013-06-15 22:42:00,63.2,54.0,25.73,NNE,22,11.4,15.4,73,0.00,,,0.08,Rainwise IP-100,2013-06-16 04:42:00,
2013-06-15 22:47:00,63.5,54.0,25.73,NNE,22,9.8,14.7,72,0.00,,,0.08,Rainwise IP-100,2013-06-16 04:47:00,
2013-06-15 22:52:00,63.8,54.5,25.73,NE,45,3.0,11.4,72,0.00,,,0.08,Rainwise IP-100,2013-06-16 04:52:00,
2013-06-15 22:57:00,63.7,54.0,25.73,ENE,67,5.8,11.7,71,0.00,,,0.08,Rainwise IP-100,2013-06-16 04:57:00,
2013-06-15 23:02:00,63.6,53.5,25.74,NE,45,7.5,9.1,70,0.00,,,0.08,Rainwise IP-100,2013-06-16 05:02:00,
2013-06-15 23:07:00,63.4,53.5,25.74,NNE,22,8.9,11.7,70,0.00,,,0.08,Rainwise IP-100,2013-06-16 05:07:00,
2013-06-15 23:12:00,63.0,53.5,25.74,NE,45,10.3,13.5,71,0.00,,,0.08,Rainwise IP-100,2013-06-16 05:12:00,
2013-06-15 23:17:00,62.6,53.5,25.74,NNE,22,10.0,18.7,72,0.00,,,0.08,Rainwise IP-100,2013-06-16 05:17:00,
2013-06-15 23:22:00,62.5,53.5,25.75,ENE,67,6.1,20.1,72,0.06,,,0.09,Rainwise IP-100,2013-06-16 05:22:00,
2013-06-15 23:27:00,62.2,53.5,25.75,ENE,67,4.7,17.5,73,0.06,,,0.09,Rainwise IP-100,2013-06-16 05:27:00,
2013-06-15 23:32:00,61.8,53.5,25.75,ENE,67,7.7,12.4,73,0.00,,,0.09,Rainwise IP-100,2013-06-16 05:32:00,
2013-06-15 23:37:00,61.6,53.0,25.75,NNE,22,11.0,16.1,73,0.00,,,0.09,Rainwise IP-100,2013-06-16 05:37:00,
2013-06-15 23:42:00,61.3,53.0,25.75,NNE,22,10.0,13.5,73,0.00,,,0.09,Rainwise IP-100,2013-06-16 05:42:00,
2013-06-15 23:47:00,61.0,53.0,25.75,ENE,67,5.1,12.6,74,0.00,,,0.09,Rainwise IP-100,2013-06-16 05:47:00,
2013-06-15 23:52:00,60.9,53.5,25.75,ENE,67,17.3,17.7,75,0.00,,,0.09,Rainwise IP-100,2013-06-16 05:52:00,
2013-06-15 23:57:00,61.1,53.0,25.75,ENE,67,4.7,18.4,74,0.00,,,0.09,Rainwise IP-100,2013-06-16 05:57:00,